SHT22A EGLL-EGJB

Flight info

Callsign SHT22A
Flight time 0h 34m
Altitude 21000
Route GASGU N866 SAM/N0357F200 N63 LELNA
Aircraft A20N/M-SDGIJ1LRWXY/SB1

Departure

Time 2026-04-22 11:07
Airport London Heathrow Airport (EGLL)

Arrival

Time 2026-04-22 11:42
Airport Guernsey Airport (EGJB)
Time Latitude Longitude Altitude Speed Heading
2026-04-22 10:09 51.46928 -0.48650 77 ft 0 kts 360°
2026-04-22 10:16 51.46926 -0.48718 77 ft 0 kts 360°
2026-04-22 10:59 51.46919 -0.48717 89 ft 3 kts 359°
2026-04-22 10:59 51.46885 -0.48716 87 ft 5 kts 336°
2026-04-22 11:00 51.46872 -0.48696 87 ft 0 kts 285°
2026-04-22 11:01 51.46872 -0.48699 87 ft 0 kts 280°
2026-04-22 11:03 51.46870 -0.48744 87 ft 12 kts 250°
2026-04-22 11:03 51.46821 -0.48765 89 ft 14 kts 164°
2026-04-22 11:04 51.46675 -0.48750 87 ft 23 kts 181°
2026-04-22 11:04 51.46581 -0.48781 87 ft 0 kts 198°
2026-04-22 11:04 51.46601 -0.48771 88 ft 0 kts 198°
2026-04-22 11:05 51.46601 -0.48772 88 ft 1 kts 198°
2026-04-22 11:06 51.46528 -0.48785 87 ft 16 kts 171°
2026-04-22 11:06 51.46476 -0.48684 90 ft 14 kts 97°
2026-04-22 11:06 51.46477 -0.48639 90 ft 0 kts 89°
2026-04-22 11:06 51.46477 -0.48614 88 ft 16 kts 92°
2026-04-22 11:07 51.46473 -0.48042 90 ft 84 kts 90°
2026-04-22 11:07 51.46482 -0.46809 90 ft 133 kts 90°
2026-04-22 11:07 51.46506 -0.45798 420 ft 132 kts 89°
2026-04-22 11:07 51.46532 -0.44996 725 ft 135 kts 88°
2026-04-22 11:08 51.46529 -0.43092 1596 ft 135 kts 88°
2026-04-22 11:08 51.46527 -0.42707 1801 ft 135 kts 88°
2026-04-22 11:08 51.46417 -0.41211 2347 ft 152 kts 104°
2026-04-22 11:08 51.45905 -0.39576 2806 ft 174 kts 118°
2026-04-22 11:09 51.45141 -0.37902 3064 ft 198 kts 123°
2026-04-22 11:09 51.44264 -0.36099 3525 ft 218 kts 123°
2026-04-22 11:09 51.43233 -0.34153 3922 ft 241 kts 137°
2026-04-22 11:09 51.41628 -0.33029 4618 ft 261 kts 168°
2026-04-22 11:10 51.40015 -0.33134 5401 ft 270 kts 188°
2026-04-22 11:10 51.38210 -0.34244 5818 ft 278 kts 205°
2026-04-22 11:10 51.36607 -0.35985 5955 ft 283 kts 214°
2026-04-22 11:10 51.35098 -0.38052 6186 ft 287 kts 218°
2026-04-22 11:11 51.33613 -0.40237 6957 ft 289 kts 219°
2026-04-22 11:11 51.32146 -0.42401 8131 ft 289 kts 219°
2026-04-22 11:11 51.30768 -0.44817 9160 ft 298 kts 234°
2026-04-22 11:11 51.29901 -0.47822 10232 ft 304 kts 252°
2026-04-22 11:12 51.29287 -0.51140 10954 ft 319 kts 252°
2026-04-22 11:12 51.28635 -0.54644 11360 ft 343 kts 252°
2026-04-22 11:12 51.27927 -0.58397 11935 ft 357 kts 252°
2026-04-22 11:12 51.27206 -0.62182 12823 ft 361 kts 252°
2026-04-22 11:13 51.26469 -0.66027 13777 ft 364 kts 252°
2026-04-22 11:13 51.25716 -0.69937 14589 ft 369 kts 253°
2026-04-22 11:13 51.24957 -0.73879 15050 ft 374 kts 253°
2026-04-22 11:13 51.24187 -0.77873 15233 ft 373 kts 253°
2026-04-22 11:14 51.23432 -0.81781 15282 ft 371 kts 253°
2026-04-22 11:14 51.22667 -0.85732 15298 ft 371 kts 253°
2026-04-22 11:14 51.21906 -0.89656 15544 ft 374 kts 253°
2026-04-22 11:14 51.21032 -0.93576 16488 ft 373 kts 246°
2026-04-22 11:15 51.19723 -0.97130 17397 ft 376 kts 235°
2026-04-22 11:15 51.17930 -1.00269 18150 ft 384 kts 226°
2026-04-22 11:15 51.16004 -1.03184 18857 ft 386 kts 226°
2026-04-22 11:15 51.14044 -1.06170 19402 ft 387 kts 227°
2026-04-22 11:16 51.12109 -1.09133 19942 ft 388 kts 227°
2026-04-22 11:16 51.10179 -1.12094 20202 ft 389 kts 227°
2026-04-22 11:16 51.08234 -1.15075 20260 ft 389 kts 227°
2026-04-22 11:16 51.06278 -1.18072 20267 ft 389 kts 227°
2026-04-22 11:17 51.04336 -1.21041 20265 ft 388 kts 227°
2026-04-22 11:17 51.02385 -1.24021 20261 ft 388 kts 227°
2026-04-22 11:17 51.00452 -1.26971 20264 ft 388 kts 227°
2026-04-22 11:17 50.98494 -1.29953 20265 ft 388 kts 227°
2026-04-22 11:18 50.96526 -1.32826 20265 ft 389 kts 223°
2026-04-22 11:18 50.94302 -1.35362 20262 ft 393 kts 215°
2026-04-22 11:18 50.91908 -1.37409 20268 ft 395 kts 210°
2026-04-22 11:18 50.89426 -1.39366 20267 ft 395 kts 210°
2026-04-22 11:19 50.86983 -1.41306 20266 ft 395 kts 210°
2026-04-22 11:19 50.84559 -1.43237 20258 ft 394 kts 210°
2026-04-22 11:19 50.82086 -1.45209 20265 ft 394 kts 210°
2026-04-22 11:19 50.79826 -1.47009 20270 ft 394 kts 210°
2026-04-22 11:20 50.78467 -1.48091 20265 ft 394 kts 210°
2026-04-22 11:20 50.76011 -1.50045 20256 ft 394 kts 210°
2026-04-22 11:20 50.73622 -1.51943 20263 ft 394 kts 210°
2026-04-22 11:20 50.71162 -1.53893 20263 ft 394 kts 210°
2026-04-22 11:21 50.68742 -1.55808 20261 ft 394 kts 210°
2026-04-22 11:21 50.67212 -1.57018 20258 ft 394 kts 210°
2026-04-22 11:21 50.64744 -1.58970 20258 ft 393 kts 210°
2026-04-22 11:21 50.62311 -1.60889 20259 ft 393 kts 210°
2026-04-22 11:22 50.59872 -1.62811 20260 ft 393 kts 210°
2026-04-22 11:22 50.57410 -1.64748 20252 ft 393 kts 210°
2026-04-22 11:22 50.54982 -1.66657 20254 ft 393 kts 210°
2026-04-22 11:22 50.52520 -1.68590 20253 ft 393 kts 210°
2026-04-22 11:23 50.50084 -1.70501 20251 ft 393 kts 210°
2026-04-22 11:23 50.47661 -1.72400 20246 ft 393 kts 210°
2026-04-22 11:23 50.45199 -1.74327 20247 ft 393 kts 210°
2026-04-22 11:23 50.42754 -1.76238 20242 ft 393 kts 210°
2026-04-22 11:24 50.40323 -1.78136 20240 ft 392 kts 210°
2026-04-22 11:24 50.38085 -1.79882 20239 ft 392 kts 210°
2026-04-22 11:24 50.35687 -1.81751 20237 ft 392 kts 210°
2026-04-22 11:24 50.33261 -1.83638 20234 ft 392 kts 210°
2026-04-22 11:25 50.30795 -1.85555 20233 ft 392 kts 210°
2026-04-22 11:25 50.28373 -1.87435 20225 ft 392 kts 210°
2026-04-22 11:25 50.25914 -1.89340 20226 ft 392 kts 210°
2026-04-22 11:25 50.23485 -1.91219 20230 ft 392 kts 210°
2026-04-22 11:26 50.21023 -1.93124 20232 ft 392 kts 210°
2026-04-22 11:26 50.18596 -1.95001 20200 ft 392 kts 210°
2026-04-22 11:26 50.16173 -1.96871 19905 ft 390 kts 210°
2026-04-22 11:26 50.13734 -1.98751 19409 ft 390 kts 210°
2026-04-22 11:27 50.11321 -2.00612 18939 ft 388 kts 210°
2026-04-22 11:27 50.08890 -2.02485 18459 ft 387 kts 210°
2026-04-22 11:27 50.06504 -2.04320 17920 ft 385 kts 210°
2026-04-22 11:27 50.04156 -2.06124 17413 ft 387 kts 209°
2026-04-22 11:28 50.01752 -2.07973 16871 ft 382 kts 209°
2026-04-22 11:28 49.99434 -2.09953 16345 ft 372 kts 216°
2026-04-22 11:28 49.97409 -2.12353 15838 ft 363 kts 224°
2026-04-22 11:28 49.95670 -2.15127 15343 ft 363 kts 231°
2026-04-22 11:29 49.94002 -2.18091 14844 ft 362 kts 230°
2026-04-22 11:29 49.92352 -2.20993 14350 ft 358 kts 230°
2026-04-22 11:29 49.90702 -2.23882 13877 ft 357 kts 229°
2026-04-22 11:29 49.89077 -2.26719 13328 ft 354 kts 229°
2026-04-22 11:30 49.87440 -2.29573 12810 ft 352 kts 229°
2026-04-22 11:30 49.85811 -2.32409 12288 ft 349 kts 228°
2026-04-22 11:30 49.84215 -2.35186 11783 ft 348 kts 228°
2026-04-22 11:30 49.82592 -2.38007 11277 ft 346 kts 227°
2026-04-22 11:31 49.81437 -2.40013 10851 ft 345 kts 227°
2026-04-22 11:31 49.79823 -2.42812 10254 ft 341 kts 227°
2026-04-22 11:31 49.78234 -2.45567 9610 ft 339 kts 226°
2026-04-22 11:31 49.76695 -2.48234 8955 ft 332 kts 226°
2026-04-22 11:32 49.75168 -2.50880 8314 ft 326 kts 225°
2026-04-22 11:32 49.73667 -2.53473 7684 ft 320 kts 225°
2026-04-22 11:32 49.72192 -2.56021 7193 ft 311 kts 224°
2026-04-22 11:32 49.70729 -2.58371 6828 ft 296 kts 217°
2026-04-22 11:33 49.69162 -2.60291 6453 ft 283 kts 211°
2026-04-22 11:33 49.67562 -2.61969 6055 ft 275 kts 208°
2026-04-22 11:33 49.65946 -2.63610 5688 ft 276 kts 206°
2026-04-22 11:33 49.64318 -2.65111 5445 ft 274 kts 205°
2026-04-22 11:34 49.62692 -2.66608 5194 ft 274 kts 205°
2026-04-22 11:34 49.61054 -2.68111 4941 ft 270 kts 205°
2026-04-22 11:34 49.59459 -2.69583 4677 ft 271 kts 205°
2026-04-22 11:34 49.57833 -2.71093 4409 ft 270 kts 205°
2026-04-22 11:35 49.56228 -2.72582 4155 ft 268 kts 205°
2026-04-22 11:35 49.54630 -2.74091 3897 ft 268 kts 205°
2026-04-22 11:35 49.53066 -2.75581 3639 ft 268 kts 205°
2026-04-22 11:35 49.51490 -2.77093 3378 ft 265 kts 205°
2026-04-22 11:36 49.49939 -2.78575 2904 ft 263 kts 205°
2026-04-22 11:36 49.48403 -2.80044 2391 ft 253 kts 205°
2026-04-22 11:36 49.46988 -2.81434 2080 ft 227 kts 205°
2026-04-22 11:36 49.45710 -2.82518 2002 ft 187 kts 188°
2026-04-22 11:37 49.44446 -2.83071 2007 ft 187 kts 185°
2026-04-22 11:37 49.43224 -2.83221 2005 ft 173 kts 157°
2026-04-22 11:37 49.42240 -2.82321 1994 ft 161 kts 127°
2026-04-22 11:37 49.41867 -2.80826 1999 ft 154 kts 88°
2026-04-22 11:38 49.42087 -2.79208 2008 ft 156 kts 76°
2026-04-22 11:38 49.42466 -2.77672 1990 ft 149 kts 73°
2026-04-22 11:38 49.42961 -2.75483 2003 ft 133 kts 76°
2026-04-22 11:39 49.43150 -2.74189 1992 ft 131 kts 86°
2026-04-22 11:39 49.43185 -2.72849 1984 ft 114 kts 90°
2026-04-22 11:39 49.43194 -2.71655 1915 ft 112 kts 89°
2026-04-22 11:39 49.43217 -2.70449 1593 ft 114 kts 88°
2026-04-22 11:40 49.43248 -2.69258 1222 ft 112 kts 88°
2026-04-22 11:40 49.43280 -2.68080 927 ft 106 kts 87°
2026-04-22 11:40 49.43310 -2.67001 1033 ft 109 kts 87°
2026-04-22 11:40 49.43345 -2.65765 864 ft 115 kts 87°
2026-04-22 11:41 49.43376 -2.64580 725 ft 113 kts 87°
2026-04-22 11:41 49.43406 -2.63368 595 ft 115 kts 86°
2026-04-22 11:41 49.43444 -2.62131 443 ft 117 kts 87°
2026-04-22 11:41 49.43477 -2.60920 367 ft 104 kts 88°
2026-04-22 11:42 49.43502 -2.59948 338 ft 62 kts 86°
2026-04-22 11:42 49.43513 -2.59751 351 ft 0 kts 84°
2026-04-22 11:42 49.43512 -2.59744 349 ft 5 kts 98°
2026-04-22 11:42 49.43505 -2.59728 343 ft 6 kts 120°
2026-04-22 11:43 49.43507 -2.59585 345 ft 15 kts 75°
2026-04-22 11:43 49.43514 -2.59437 346 ft 13 kts 90°
2026-04-22 11:43 49.43515 -2.59303 348 ft 12 kts 89°
2026-04-22 11:43 49.43479 -2.59203 348 ft 12 kts 154°
2026-04-22 11:44 49.43410 -2.59205 340 ft 1 kts 184°
2026-04-22 11:44 49.43372 -2.59236 337 ft 9 kts 234°
2026-04-22 11:44 49.43367 -2.59339 337 ft 12 kts 275°
2026-04-22 11:44 49.43365 -2.59487 336 ft 16 kts 268°
2026-04-22 11:45 49.43362 -2.59634 339 ft 1 kts 268°
2026-04-22 11:45 49.43360 -2.59664 339 ft 5 kts 264°
2026-04-22 11:45 49.43335 -2.59687 338 ft 6 kts 191°
2026-04-22 11:45 49.43284 -2.59684 339 ft 9 kts 177°
2026-04-22 11:46 49.43253 -2.59682 339 ft 0 kts 176°